Regional Weather Roundup
Issued by NWS

Home | Current Version | Previous Version | Graphics & Text | Print | Product List | Glossary On
Versions: 1 2 3 4 5 6 7 8 9 10 11 12 13 14 15 16 17 18 19 20 21 22 23 24 25 26 27 28 29 30 31 32 33 34 35 36 37 38 39 40 41 42 43 44 45 46 47 48 49 50
000
ASUS43 KOAX 311502
RWRNE

WEATHER ROUNDUP FOR NEBRASKA
NATIONAL WEATHER SERVICE OMAHA NE
1000 AM CDT TUE MAY 31 2016

NOTES: SATELLITE DATA IS BEING USED TO AUGMENT CLOUD COVER ABOVE
       12000 FEET.
       "FAIR" INDICATES FEW OR NO CLOUDS BELOW 12,000 FEET WITH NO
       SIGNIFICANT WEATHER AND/OR OBSTRUCTIONS TO VISIBILITY.

  * THESE STATIONS DO NOT REPORT WEATHER SUCH AS RAIN...SNOW OR FOG.

NEZ001>004-019>022-054>056-311600-
NEBRASKA PANHANDLE

CITY           SKY/WX    TMP DP  RH WIND       PRES   REMARKS
SCOTTSBLUFF    CLOUDY    53  43  68 NW5       30.13R
ALLIANCE       CLOUDY    56  43  61 NW10      30.10S
CHADRON        SUNNY     62  39  42 W16G24    30.07S
SIDNEY         CLOUDY    50  41  71 N7        30.15R
$$

NEZ057>060-069>072-079>082-311600-
SOUTHWEST NEBRASKA

CITY           SKY/WX    TMP DP  RH WIND       PRES   REMARKS
NORTH PLATTE   CLOUDY    57  43  59 NW9       30.10R
IMPERIAL       CLOUDY    57  45  64 N13       30.12S
LEXINGTON      SUNNY     61  49  65 N9        30.06S
MCCOOK         SUNNY     61  48  62 N14       30.09R
$$

NEZ005>010-023>029-035>040-094-311600-
NORTH CENTRAL NEBRASKA

CITY           SKY/WX    TMP DP  RH WIND       PRES   REMARKS
VALENTINE      MOSUNNY   60  40  47 W10       30.01S
AINSWORTH      CLOUDY    56  41  57 W6        30.03R
BROKEN BOW     MOSUNNY   61  46  57 N21       30.04R
ORD            MOSUNNY   64  45  49 N17       30.02R
$$

NEZ041-046>049-061>064-073>077-083>087-311600-
SOUTH CENTRAL NEBRASKA

CITY           SKY/WX    TMP DP  RH WIND       PRES   REMARKS
GRAND ISLAND   MOSUNNY   64  50  60 N15       30.03R
HASTINGS       MOSUNNY   62  52  69 N15       30.02R
KEARNEY *      CLOUDY    63  48  59 N15G21    30.04R
YORK           CLOUDY    63  57  82 N9G16     30.00R
$$

NEZ011>018-030>034-042>045-311600-
NORTHEAST NEBRASKA

CITY           SKY/WX    TMP DP  RH WIND       PRES   REMARKS
NORFOLK        PTSUNNY   63  51  65 N14       29.98S
ALBION         MOSUNNY   62  49  63 N13G18    30.01R
BLAIR          RAIN      63  61  93 NW8       29.95R
FREMONT        CLOUDY    64  61  90 NW9       29.97S
TEKAMAH        CLOUDY    65  61  87 NW16      29.95S
$$

NEZ050>053-065>068-078-088>093-311600-
SOUTHEAST NEBRASKA

CITY           SKY/WX    TMP DP  RH WIND       PRES   REMARKS
LINCOLN        CLOUDY    68  59  73 N14       29.96R
OMAHA EPPLEY   CLOUDY    69  61  75 NW13      29.93R
FALLS CITY     LGT RAIN  73  62  68 SW6       29.93R
PLATTSMOUTH    PTSUNNY   71  63  74 NW10G16   29.92S
$$

NEZ044-045-051>053-067-311600-
OMAHA AREA

CITY           SKY/WX    TMP DP  RH WIND       PRES   REMARKS
OMAHA EPPLEY   CLOUDY    69  61  75 NW13      29.93R
BLAIR          RAIN      63  61  93 NW8       29.95R
FREMONT        CLOUDY    64  61  90 NW9       29.97S
OFFUTT AFB     PTSUNNY   71  61  70 NW16      29.92R
PLATTSMOUTH    PTSUNNY   71  63  74 NW10G16   29.92S
$$



USA.gov is the U.S. government's official web portal to all federal, state and local government web resources and services.